Regional Weather Roundup
Issued by NWS

Home | Current Version | Previous Version | Text Only | Print | Product List | Glossary Off
Versions: 1 2 3 4 5 6 7 8 9 10 11 12 13 14 15 16 17 18 19 20 21 22 23 24 25 26 27 28 29 30 31 32 33 34 35 36 37 38 39 40 41 42 43 44 45 46 47 48 49 50

000
ASUS43 KLSX 210557
RWRMO

WEATHER SUMMARY FOR MISSOURI
NATIONAL WEATHER SERVICE SPRINGFIELD MO
100 AM CDT MON AUG 21 2017

NOTE: "FAIR" INDICATES FEW OR NO CLOUDS BELOW 12,000 FEET WITH NO
       SIGNIFICANT WEATHER AND/OR OBSTRUCTIONS TO VISIBILITY.
       CURRENT SKY AND/OR WEATHER CONDITIONS ARE NOT AVAILABLE FOR
       CHILLICOTHE AND FARMINGTON.

MOZ001>031-035>038-043-044-053-054-210700-
...NORTHERN AND WESTERN MISSOURI...

CITY           SKY/WX    TMP DP  RH WIND       PRES   REMARKS
KANSAS CTY INT CLOUDY    76  66  71 S12       30.01F
6HR MIN TEMP:  75; 6HR MAX TEMP:  84;

LEE`S SUMMIT   MOCLDY    77  66  68 S13       30.03F
6HR MIN TEMP:  76; 6HR MAX TEMP:  85;

ST JOSEPH      CLEAR     78  72  81 S10       29.98F
6HR MIN TEMP:  77; 6HR MAX TEMP:  84;

CHILLICOTHE      N/A     74  70  87 S6        30.01F
6HR MIN TEMP:  73; 6HR MAX TEMP:  80;


$$
MOZ066>068-077>081-088>096-101>105-210700-
...SOUTHWEST MISSOURI...

CITY           SKY/WX    TMP DP  RH WIND       PRES   REMARKS
SPRINGFIELD    PTCLDY    71  71 100 S7        30.09S
6HR MIN TEMP:  69; 6HR MAX TEMP:  88; 6HR PCP:  1.01;

JOPLIN         CLOUDY    76  69  79 SE8       30.07F
6HR MIN TEMP:  75; 6HR MAX TEMP:  90;


$$
MOZ032>034-039>042-045>050-055>058-069>072-210700-
...CENTRAL MISSOURI...

CITY           SKY/WX    TMP DP  RH WIND       PRES   REMARKS
COLUMBIA       NOT AVBL
JEFFERSON CITY CLOUDY    75  75 100 SE8       30.05R
6HR MIN TEMP:  74; 6HR MAX TEMP:  85;

ROLLA          PTCLDY    74  72  93 S6        30.10R
6HR MIN TEMP:  73; 6HR MAX TEMP:  82;

SEDALIA        CLOUDY    72  68  87 SE3       30.05S
6HR MIN TEMP:  72; 6HR MAX TEMP:  87;

WARRENSBURG    CLOUDY    72  63  73 S3        30.04R

$$
MOZ051-052-059>065-210700-
...EAST CENTRAL MISSOURI...

CITY           SKY/WX    TMP DP  RH WIND       PRES   REMARKS
ST LOUIS INTL  CLOUDY    80  72  76 S5        30.08R
6HR MIN TEMP:  80; 6HR MAX TEMP:  89;


$$
MOZ072>076-082>087-097>100-106>115-210700-
...SOUTH CENTRAL AND SOUTHEAST MISSOURI...

CITY           SKY/WX    TMP DP  RH WIND       PRES   REMARKS
CAPE GIRARDEAU CLOUDY    71  68  90 CALM      30.08R
6HR MIN TEMP:  70; 6HR MAX TEMP:  81;

POPLAR BLUFF   CLOUDY    73  72  96 CALM      30.07F
6HR MIN TEMP:  73; 6HR MAX TEMP:  85;

WEST PLAINS    PTCLDY    74  70  87 S6        30.13S
6HR MIN TEMP:  73; 6HR MAX TEMP:  84;


$$



USA.gov is the U.S. government's official web portal to all federal, state and local government web resources and services.